Regional Weather Roundup
Issued by NWS

Home | Current Version | Previous Version | Text Only | Print | Product List | Glossary Off
Versions: 1 2 3 4 5 6 7 8 9 10 11 12 13 14 15 16 17 18 19 20 21 22 23 24 25 26 27 28 29 30 31 32 33 34 35 36 37 38 39 40 41 42 43 44 45 46 47 48 49 50

000
ASUS43 KMPX 160701
RWRMN
WEATHER ROUNDUP FOR MINNESOTA
NATIONAL WEATHER SERVICE TWIN CITIES/CHANHASSEN MN
200 AM CDT WED AUG 16 2017


NOTE: "FAIR" INDICATES FEW OR NO CLOUDS BELOW 12,000 FEET WITH NO
SIGNIFICANT WEATHER AND/OR OBSTRUCTIONS TO VISIBILITY. N/A MEANS
CURRENT SKY AND/OR WEATHER CONDITIONS ARE NOT AVAILABLE.

MNZ060>063-068>070-160800-
   Twin Cities Metro

CITY           SKY/WX    TMP DP  RH WIND       PRES   REMARKS
TWIN CITIES    CLOUDY    67  61  81 SE5       29.95R
ST PAUL        CLOUDY    66  62  87 SE6       29.95S
CRYSTAL        MOCLDY    66  58  75 E3        29.94R
BLAINE         MOCLDY    66  61  82 CALM      29.96R
LAKEVILLE      RAIN      63  63 100 S5        29.96R
EDEN PRAIRIE   CLOUDY    67  61  81 SE8       29.95R
SOUTH ST PAUL  MOCLDY    65  60  83 CALM      29.95R
LAKE ELMO      FAIR      63  59  88 CALM      29.97S
$$
MNZ001>005-007-008-013>017-022>024-027-028-160800-
   Northwest Minnesota

CITY           SKY/WX    TMP DP  RH WIND       PRES   REMARKS
BEMIDJI        CLOUDY    65  60  84 SE6       29.94R
HALLOCK        DRIZZLE   64  63  94 N5        29.91F
ROSEAU         CLOUDY    68  61  77 CALM      29.93S
WARROAD        MOCLDY    66  63  88 CALM      29.94S
CROOKSTON      LGT RAIN  66  61  82 SE5       29.91S
FOSSTON        CLOUDY    64  57  77 SE3       29.94R
DETROIT LAKES  CLOUDY    64  59  82 S8        29.93R
MOORHEAD       CLOUDY    66  59  77 SE6       29.89S
PARK RAPIDS    CLOUDY    66  57  72 SE8       29.94R
MAHNOMEN       CLOUDY    66  57  72 SE5       29.92R
$$
MNZ006-009>011-018-025>026-160800-
   North Central Minnesota

CITY           SKY/WX    TMP DP  RH WIND       PRES   REMARKS
BAUDETTE       CLOUDY    66  60  81 S3        29.94S
FLAG ISLAND    MOCLDY    70  63  78 CALM      29.92R
INTL FALLS     CLOUDY    65  58  78 VRB5      29.96F
WASKISH        CLOUDY    64  61  88 SE3       29.95S
BIG FORK       CLOUDY    63  57  82 SE3       29.98S
LONGVILLE      CLOUDY    61  61 100 CALM      29.95F
GRAND RAPIDS   CLOUDY    59  55  87 SE6       30.00S
CRANE LAKE     CLOUDY    55  52  88 CALM      30.02S
ORR            CLOUDY    57  46  67 SE3       29.98S
COOK             N/A     57  48  72 CALM      30.01S
WALKER         FAIR      65  59  82 SE5       29.94R
$$
MNZ012-019>021-037-160800-
   Northeast Minnesota

CITY           SKY/WX    TMP DP  RH WIND       PRES   REMARKS
DULUTH         CLOUDY    57  56  96 E10       30.02S
ELY            CLOUDY    48  46  93 CALM      30.03S
HIBBING        CLOUDY    55  50  83 E5        30.00F
EVELETH        PTCLDY    53  47  80 CALM      30.02F
DULUTH HARBOR  PTCLDY    63  61  94 NE16      30.02S
GRAND MARAIS     N/A     51  49  92 N5        30.04F
$$
MNZ029>031-032-039>041-046>048-054>057-064-160800-
   West Central Minnesota

CITY           SKY/WX    TMP DP  RH WIND       PRES   REMARKS
FERGUS FALLS   CLOUDY    66  59  77 SE7       29.89F
WHEATON        CLOUDY    63  61  94 E6        29.88F
MORRIS         CLOUDY    64  61  88 SE10      29.88F
ALEXANDRIA     CLOUDY    63  59  87 SE9       29.93R
ELBOW LAKE     MOCLDY    64  60  88 E9        29.90S
WADENA         CLOUDY    63  57  82 SE6       29.92S
GLENWOOD       CLOUDY    63  61  94 SE9       29.92S
APPLETON       CLOUDY    66  61  82 SE9       29.87F
BENSON         CLOUDY    66  61  82 S9        29.90F
ORTONVILLE     CLOUDY    64  61  88 MISG      29.86F
MADISON        CLOUDY    66  66 100 SE12      29.87F
WILLMAR        CLOUDY    66  63  88 SE10      29.91S
$$
MNZ033>034-036-042>043-049>051-058-059-160800-
   Central Minnesota

CITY           SKY/WX    TMP DP  RH WIND       PRES   REMARKS
ST CLOUD       CLOUDY    63  60  90 E7        29.94S
SAUK CENTRE    FAIR      61  58  90 SE5       29.93R
PAYNESVILLE    MOCLDY    64  60  88 SE8       29.93S
AITKIN         CLOUDY    61  57  88 E5        29.96R
PINE RIVER     MOCLDY    61  57  88 SE7       29.98S
BRAINERD       CLOUDY    64  58  80 SE3       29.95S
STAPLES        CLOUDY    63  55  77 CALM      29.93S
LONG PRAIRIE   FAIR      61  57  88 E7        29.93F
LITTLE FALLS   CLOUDY    63  55  77 E7        29.94S
LITCHFIELD     CLOUDY    64  63  94 SE10      29.93S
BUFFALO        CLOUDY    63  59  87 E3        29.96S
MAPLE LAKE     MOCLDY    65  62  90 SE5       29.95S
HUTCHINSON     CLOUDY    64  63  94 E9        29.94S
$$
MNZ037-044-045-052-053-160800-
   East Central Minnesota

CITY           SKY/WX    TMP DP  RH WIND       PRES   REMARKS
PRINCETON      MOCLDY    64  61  88 E3        29.96S
MORA           CLOUDY    59  55  88 CALM      29.98F
RUSH CITY      CLOUDY    62  58  87 E3        29.97F
MOOSE LAKE     CLOUDY    59  55  88 CALM      29.97F
HINCKLEY       FAIR      61  61 100 E5        29.98F
CLOQUET        PTCLDY    57  55  94 E6        30.01S
MCGREGOR       CLOUDY    59  57  94 E3        29.99R
$$
MNZ071>073-080-081-089-090-097-098-160800-
   Southwest Minnesota

CITY           SKY/WX    TMP DP  RH WIND       PRES   REMARKS
MONTEVIDEO     CLOUDY    64  64 100 S8        29.88F
GRANITE FALLS  CLOUDY    67  64  89 SE9G16    29.89S
CANBY          CLOUDY    65  63  94 CALM      29.87F FOG
MARSHALL       CLOUDY    65  63  93 SE10      29.87F
REDWOOD FALLS  CLOUDY    65  61  87 SE9       29.88F
OLIVIA         CLOUDY    63  61  94 SE9       29.89F
PIPESTONE      CLOUDY    66  64  94 SE7       29.88S
WINDOM         CLOUDY    66  64  94 SE9       29.91R
WORTHINGTON    CLOUDY    66  65  96 SE9       29.90S
JACKSON        MIX PCPN  64  64 100 CALM      29.92R
TRACY          CLOUDY    67  65  96 SE12      29.88F
SLAYTON        CLOUDY    64  60  85 SE10      29.90S
$$
MNZ065>067-074>077-082>085-091>093-160800-
   South Central Minnesota

CITY           SKY/WX    TMP DP  RH WIND       PRES   REMARKS
MANKATO        CLOUDY    64  62  93 E8        29.92F
NEW ULM        CLOUDY    64  63  94 SE10      29.91S
ST JAMES       LGT RAIN  64  63  94 E5        29.92R
FAIRMONT       CLOUDY    65  64  97 SE6       29.91S
GLENCOE        LGT RAIN  65  65 100 E8        29.94S
FARIBAULT      LGT RAIN  64  63  94 CALM      29.96S
OWATONNA       CLOUDY    64  63  94 E5        29.94F
WASECA         CLOUDY    63  59  88 E6        29.94F
ALBERT LEA     CLOUDY    66  64  94 SE8       29.93F
$$
MNZ078>079-086>088-094>096-160800-
   Southeast Minnesota

CITY           SKY/WX    TMP DP  RH WIND       PRES   REMARKS
ROCHESTER      CLOUDY    63  62  97 SE8       29.96F
RED WING       CLOUDY    64  59  82 E5        29.95R
STANTON        RAIN      65  61  86 SE5       29.95R
DODGE CENTER   PTCLDY    63  61  94 SE3       29.96R
WINONA         CLOUDY    64  63  94 CALM      29.97S
AUSTIN         CLOUDY    63  61  94 CALM      29.94S
PRESTON        CLOUDY    65  59  83 SE6       29.97F
$$
ABBREVIATIONS USED IN REMARKS
   TC - TEMPERATURES IN CELSIUS
  WCI - WIND CHILL INDEX
   HX - HEAT INDEX
  VSB - VISIBILITY
$$



USA.gov is the U.S. government's official web portal to all federal, state and local government web resources and services.